User: anonymous   Login
Location: Albany
(35.0000°S, 118.0000°E)
Time: 05:43:36
(UTC-04:00)
Language:

Cosmos 1758 Rocket - Orbit

View from above orbital plane
View from above orbital plane
View from above satellite
View from above satellite

Ground track
Ground track

The orbit data is extracted from the following two-line orbital elements,

1 16792U 86046B   17295.91032302  .00000108  00000-0  10281-4 0  9998
2 16792  82.4816  82.2282 0023086 230.3709 243.7506 14.83152035693819
Epoch (UTC): 22 October 2017 21:50:51
Eccentricity: 0.0023086
inclination: 82.4816°
perigee height: 603 km
apogee height: 635 km
right ascension of ascending node: 82.2282°
argument of perigee: 230.3709°
revolutions per day: 14.83152035
mean anomaly at epoch: 243.7506°
orbit number at epoch: 69381

The dashed part of the orbit path shows where the satellite is in the earth's shadow,  

DLR